Flag for Bolivia Weather past 2 weeks in Trinidad, Bolivia

Now
77 °F

Clear.


Feels Like: 79 °F
Forecast: 67 / 96 °F
Wind: No wind

Location: Trinidad Airport

Current Time: Aug 21, 2014 at 12:26:56 AM

Latest Report: Aug 20, 2014 at 9:00 PM


Visibility: 2 mi

Pressure: 29.95 "Hg

Humidity: 79%

Dew point: 70 °F

Location of TrinidadLocation

Historic Weather in Trinidad — Graph

°F

Trinidad temperature yesterday

Maximum temperature yesterday: 93 °F (at 3:00 PM)
Minimum temperature yesterday: 66 °F (at 7:00 AM)
Average temperature yesterday: 82 °F

Past Weeks' High & Low Weather Summary

 TemperatureHumidityPressure
High93 °F (Aug 12, 3:00 PM)100% (Aug 7, 5:00 AM)30.18 "Hg (Aug 7, 5:00 AM)
Low59 °F (Aug 15, 5:00 AM)27% (Aug 14, 1:00 PM)29.83 "Hg (Aug 6, 5:00 PM)
Average78 °F61%29.99 "Hg
* Reported Aug 6 6:00 AM — Aug 20 9:00 PM, Trinidad, Weather by CustomWeather, © 2014

Note: Actual official high and low records may vary slightly from our data, if they occured in-between our weather recording intervals... More about our weather records

Advertising

Trinidad weather history for previous 24 hours

 ConditionsComfort  
Time TempWeatherWind HumidityBarometerVisibility
9:00 PM
Aug 20
77 °FClear.No wind79%29.95 "Hg2 mi
8:00 PM81 °FClear.No wind74%29.92 "Hg3 mi
7:00 PM84 °FPassing clouds.No wind62%29.92 "Hg5 mi
6:00 PM90 °FPassing clouds.No wind49%29.92 "Hg5 mi
5:00 PM91 °FPassing clouds.6 mph44%29.92 "Hg5 mi
4:00 PM93 °FPassing clouds.7 mph41%29.92 "Hg5 mi
3:00 PM93 °FPassing clouds.7 mph49%29.92 "Hg5 mi
2:00 PM91 °FPassing clouds.7 mph46%29.95 "Hg5 mi
1:00 PM91 °FClear.3 mph46%30.01 "Hg4 mi
12:00 PM90 °FClear.3 mph49%30.04 "Hg4 mi
11:00 AM86 °FClear.5 mph59%30.04 "Hg4 mi
10:00 AM82 °FClear.5 mph62%30.04 "Hg4 mi
9:00 AM77 °FClear.7 mph74%30.04 "Hg4 mi
8:00 AM70 °FClear.5 mph94%30.01 "Hg4 mi
7:00 AM66 °FClear.3 mph94%29.98 "Hg4 mi
6:00 AM68 °FClear.3 mph94%29.95 "Hg4 mi
5:00 AM68 °FClear.No wind94%29.95 "Hg4 mi
Weather by CustomWeather, © 2014

See weather overviewHow to use our weather pages